Details From EDMO - Oberpfaffenhofen
To LIMP - Parma
Flight Number -
Tags Standard
Created
Modified
Stats Distance 198 nm / 367 km
Max Altitude 3,344 ft / 1,019 m
Waypoints 6
Social Downloads 24
Likes 0
Share

Download

Looking for another format? Having issues loading an existing format? Contact us
Advertisement - Login to hide

Notes

Beech 1900D, Dep.rwy22 - Arr,rwy20

Route

+48.084_+011.295 OBI16 +45.994_+010.712 +45.157_+010.239 +45.119_+010.420 +44.991_+010.365

ID Type Via Altitude (ft/m) Position (lat/lon) Dist (leg/tot) Name
O +48.084_+011.295 LATLON - 0 / 0 48.08400 / 11.29500 - / 0 nm
OBI16 FIX - 0 / 0 48.06132 / 11.25798 2 / 2 nm
+45.994_+010.712 LATLON - 3,344 / 1,019 45.99441 / 10.71232 126 / 128 nm
+45.157_+010.239 LATLON - 3,344 / 1,019 45.15685 / 10.23896 54 / 182 nm
+45.119_+010.420 LATLON - 3,344 / 1,019 45.11871 / 10.41972 7 / 190 nm
O +44.991_+010.365 LATLON - 3,344 / 1,019 44.99100 / 10.36500 8 / 198 nm

Altitude Profile

Advertisement - Login to hide

Weather


0- 5 10 15 20 25 30 35+ Temperature / °C

Clouds and Precipitation
Forecast for 2021-03-22 12:00 UTC. Updated 23 days ago

Ground ~20,000 ft ~40,000 ft Winds

EDMO

Details ICAO EDMO (OBF)
Name Oberpfaffenhofen
Region Germany - Civil
Timezone Europe/Berlin (UTC+2.0)
Stats Elevation 1,946 ft / 593 m (AMSL)
Location 48.081400° 11.283100°
Runways 1
Magnetic Variation 3.435° E

METAR

EDMO 141920Z AUTO 00000KT 9999 // BKN049/// OVC058/// 02/M02 Q1024

Decode

TAF

Not found

Departure Runways

ID Width Length Bearing (true/mag) Surface Threshold Overrun Markings Lighting
04 147 ft / 45 m 7,491 ft / 2,283 m 42.36° / 38.93° ASPHALT 0 ft / 0 m 230 ft / 70 m APP EDGE THRESHOLD
22 147 ft / 45 m 7,491 ft / 2,283 m 222.38° / 218.94° ASPHALT 0 ft / 0 m 0 ft / 0 m APP EDGE THRESHOLD MALS TDZ

LIMP

Details ICAO LIMP (PMF)
Name Parma "Giuseppe Verdi"
Region Italy
Timezone Europe/Rome (UTC+2.0)
Stats Elevation 161 ft / 49 m (AMSL)
Location 44.826800° 10.297100°
Runways 1
Magnetic Variation 3.092° E

METAR

LIMP 141850Z 11007KT 090V150 9999 SCT030 11/03 Q1021

Decode

TAF

TAF LIMP 141700Z 1418/1518 09006KT 9999 SCT040 TEMPO 1508/1512 4000 RA BKN014

Decode

Destination Runways

ID Width Length Bearing (true/mag) Surface Threshold Overrun Markings Lighting
02 148 ft / 45 m 6,975 ft / 2,126 m 17.32° / 14.23° ASPHALT 689 ft / 210 m 394 ft / 120 m PREC-APP EDGE THRESHOLD REIL-OMNI
20 148 ft / 45 m 6,975 ft / 2,126 m 197.33° / 194.23° ASPHALT 597 ft / 182 m 197 ft / 60 m PREC-APP EDGE THRESHOLD MALSF REIL-OMNI

Approach Navaids

Runway Type Ident Frequency Range Bearing (true/mag) Slope Elevation
20 LOC-ILS IPR 110.50 MHz 18 nm / 33 km 197.37° / 194.28 ° - 163 ft / 50 m (AMSL)
20 GS IPR 110.50 MHz 10 nm / 19 km 197.40° / 194.30 ° 3.00° 145 ft / 44 m (AMSL)
20 OM OM - - 197.20° / 194.11 ° - 161 ft / 49 m (AMSL)
20 DME IPR 110.50 MHz 18 nm / 33 km - - 163 ft / 50 m (AMSL)